User: anonymous   Login
Location: Tyler Bend Campground
(35.9875°N, 92.7606°W)
Time: 20:39:11
(UTC-06:00)
Language:

CZ-2C R/B - Orbit

View from above orbital plane
View from above orbital plane
View from above satellite
View from above satellite

Ground track
Ground track

The orbit data is extracted from the following two-line orbital elements,

1 36089U 09061B   17350.52891352  .00000054  00000-0  24731-4 0  9993
2 36089  98.0602 344.3114 0081531 203.3883 266.9168 14.49699856428124
Epoch (UTC): 16 December 2017 12:41:38
Eccentricity: 0.0081531
inclination: 98.0602°
perigee height: 669 km
apogee height: 784 km
right ascension of ascending node: 344.3114°
argument of perigee: 203.3883°
revolutions per day: 14.49699856
mean anomaly at epoch: 266.9168°
orbit number at epoch: 42812

The dashed part of the orbit path shows where the satellite is in the earth's shadow,  

DLR